Regional Weather Roundup
Issued by NWS

Home | Current Version | Previous Version | Graphics & Text | Print | Product List | Glossary On
Versions: 1 2 3 4 5 6 7 8 9 10 11 12 13 14 15 16 17 18 19 20 21 22 23 24 25 26 27 28 29 30 31 32 33 34 35 36 37 38 39 40 41 42 43 44 45 46 47 48 49 50
000
ASUS45 KABQ 171901
RWRNM
WEATHER ROUNDUP FOR NEW MEXICO
NATIONAL WEATHER SERVICE ALBUQUERQUE NM
100 PM MDT WED SEP 17 2014

NOTE: "FAIR" MEANS FEW OR NO CLOUDS BELOW 12,000 FEET AGL WITH NO
       SIGNIFICANT WEATHER OR OBSTRUCTIONS TO VISION.

      THIS PRODUCT IS RELEASED AS TWO VERSIONS.  ONE VERSION NEAR
      THE TOP OF THE HOUR CONTAINING PRELIMINARY DATA FROM ALBUQUERQUE
      AND OTHER STATIONS.  A FINAL VERSION WITH ADDITIONAL DATA IS
      ISSUED ABOUT 10 MINUTES AFTER THE HOUR.

NMZ501-503-504-510>518-172000-
NORTHWEST PLATEAU/NORTHCENTRAL MOUNTAINS

CITY           SKY/WX    TMP DP  RH WIND       PRES   REMARKS
FARMINGTON     SUNNY     75  51  43 SE6       30.14F
LOS ALAMOS     CLOUDY    63  53  69 SE7       30.27F
SANTA FE       LGT RAIN  63  54  72 S7        30.22F
TAOS           CLOUDY    64  50  59 SW3       30.24F
ANGEL FIRE     FAIR      68  35  29 CALM      30.31F

$$
NMZ402-403-502-505>509-172000-
WESTCENTRAL MOUNTAINS/SOUTHWEST MOUNTAINS

CITY           SKY/WX    TMP DP  RH WIND       PRES   REMARKS
GALLUP         CLOUDY    69  50  50 VRB3      30.21F
GRANTS         DRIZZLE   61  54  77 S5        30.26F
SILVER CITY    CLOUDY    68  61  77 E8        30.16F

$$
NMZ407-409-411-412-172000-
SOUTHERN DESERTS

CITY           SKY/WX    TMP DP  RH WIND       PRES   REMARKS
LORDSBURG      CLOUDY    73  63  68 SE12      30.06F
DEMING         CLOUDY    73  65  75 NE12      30.08F
LAS CRUCES     CLOUDY    74  65  72 N3        30.10F
ALAMOGORDO     PTSUNNY   73  63  68 N6        30.10F
T OR C         PTSUNNY   71  62  73 CALM      30.12F

$$
NMZ519>523-172000-
CENTRAL VALLEYS/CENTRAL HIGHLANDS

CITY           SKY/WX    TMP DP  RH WIND       PRES   REMARKS
ALBUQUERQUE    LGT RAIN  65  58  78 N5        30.19F
DOUBLE EAGLE   LGT RAIN  63  57  82 CALM      30.21F
CLINES CORNERS CLOUDY    62  53  72 W10       30.25F
BELEN          CLOUDY    65  60  86 CALM      30.18F
SOCORRO        PTSUNNY   67  61  81 N6        30.15F

$$
NMZ524>526-539-540-172000-
SOUTHCENTRAL MOUNTAINS

CITY           SKY/WX    TMP DP  RH WIND       PRES   REMARKS
RUIDOSO        NOT AVBL

$$
NMZ527>531-172000-
NORTHEAST HIGHLANDS/NORTHEAST PLAINS

CITY           SKY/WX    TMP DP  RH WIND       PRES   REMARKS
LAS VEGAS      CLOUDY    67  50  54 S12       30.22F
RATON          CLOUDY    76  43  30 CALM      30.16F
CLAYTON        CLOUDY    79  55  43 SW12      30.08F

$$
NMZ532>537-172000-
EASTCENTRAL PLAINS

CITY           SKY/WX    TMP DP  RH WIND       PRES   REMARKS
TUCUMCARI      CLOUDY    76  59  55 S20       30.08S
CANNON AFB     NOT AVBL
CLOVIS AIRPORT   N/A     66  64  94 W6        30.14F

$$
NMZ028-029-538-172000-
SOUTHEAST PLAINS

CITY           SKY/WX    TMP DP  RH WIND       PRES   REMARKS
ROSWELL        PTSUNNY   74  64  71 CALM      30.07F
CARLSBAD       MOSUNNY   80  67  64 E5        30.02F
HOBBS          PTSUNNY   79  66  65 S7        30.07F


$$


USA.gov is the U.S. government's official web portal to all federal, state and local government web resources and services.